User: anonymous   Login
Location: Newark
(0.5300°S, 127.4800°E)
Time: 01:26:53
(UTC+00:00)
Language:

Altair - Orbit

View from above orbital plane
View from above orbital plane
View from above satellite
View from above satellite

Ground track
Ground track

The orbit data is extracted from the following two-line orbital elements,

1    50U 60009B   19262.87591949 -.00000115 +00000-0 -28505-3 0  9994
2    50 047.2304 244.1530 0114130 236.6634 122.3186 12.20109526637069
Epoch (UTC): 19 September 2019 21:01:19
Eccentricity: 0.0114130
inclination: 47.2304°
perigee height: 1501 km
apogee height: 1683 km
right ascension of ascending node: 244.1530°
argument of perigee: 236.6634°
revolutions per day: 12.20109526
mean anomaly at epoch: 122.3186°
orbit number at epoch: 63706

The dashed part of the orbit path shows where the satellite is in the earth's shadow,  

DLR